Regional Weather Roundup
Issued by NWS

Home | Current Version | Previous Version | Graphics & Text | Print | Product List | Glossary On
Versions: 1 2 3 4 5 6 7 8 9 10 11 12 13 14 15 16 17 18 19 20 21 22 23 24 25 26 27 28 29 30 31 32 33 34 35 36 37 38 39 40 41 42 43 44 45 46 47 48 49 50
000
ASUS43 KMKX 171259
RWRWI

WISCONSIN REGIONAL WEATHER ROUNDUP
NATIONAL WEATHER SERVICE MILWAUKEE/SULLIVAN WI
700 AM CST WED JAN 17 2018

NOTE: "FAIR" INDICATES FEW OR NO CLOUDS BELOW 12,000 FEET WITH NO
SIGNIFICANT WEATHER AND/OR OBSTRUCTIONS TO VISIBILITY.

WIZ001-002-006>008-014>016-023>028-171400-
NORTHWEST WISCONSIN

CITY           SKY/WX    TMP DP  RH WIND       PRES   REMARKS
SUPERIOR ARPT  FAIR       5  -3  68 SW15      30.22F WCI -13
ASHLAND        FAIR       7  -2  66 SW17      30.20F WCI -12
HAYWARD        FAIR       4  -4  69 SW7       30.24F WCI  -8
SIREN          FAIR       6  -3  67 SW10      30.29F WCI  -9
CUMBERLAND     FAIR       3  -4  72 SW12      30.29F WCI -13
RICE LAKE      FAIR      -2  -6  82 CALM      30.33F
CHETEK         FAIR      -2  -5  84 MISG      30.33F
LADYSMITH      FAIR      -4  -8  84 S5        30.31F WCI -15
EAU CLAIRE     NOT AVBL
MENOMONIE      FAIR      -2  -7  80 S6        30.37F WCI -14
NEW RICHMOND   FAIR      -1  -6  80 S8        30.34F WCI -16
OSCEOLA        FAIR       0  -6  77 S7        30.37F WCI -13
$$

WIZ003>005-009-010-017-018-171400-
NORTH CENTRAL WISCONSIN

CITY           SKY/WX    TMP DP  RH WIND       PRES   REMARKS
MANITOWISH WTR FAIR       4  -4  72 SW9G17    30.18F WCI -11
ARBOR VITAE    FAIR       9   3  75 W13G18    30.20F WCI  -7
WOODRUFF       FAIR       9   3  75 W13G18    30.20F WCI  -7
RHINELANDER    FAIR       5  -1  76 W14       30.22F WCI -12
EAGLE RIVER    FAIR       5  -2  72 W10       30.18F WCI -10
LAND O LAKES   FAIR       7   0  72 W8        30.19F WCI  -6
PHILLIPS       FAIR       1  -4  79 SW10G16   30.25F WCI -15
TOMAHAWK       FAIR       5  -1  75 W5        30.28R WCI  -4
MEDFORD        FAIR      -2  -5  85 SW5       30.30S WCI -12
MERRILL        FAIR       1  -3  83 CALM      30.32S
$$

WIZ029-030-035-036-043>047-171400-
CENTRAL WISCONSIN

CITY           SKY/WX    TMP DP  RH WIND       PRES   REMARKS
WAUSAU         FAIR       1  -3  83 CALM      30.32F
MOSINEE        NOT AVBL
MARSHFIELD     FAIR      -1  -4  87 W8        30.34S WCI -15
STEVENS POINT  FAIR       0  -4  85 W8        30.37F WCI -15
WAUPACA        MOCLDY     4  -2  76 SW6       30.40F WCI  -7
WAUTOMA        CLOUDY     2  -2  83 SW7       30.41F WCI -11
WISC RAPIDS    FAIR       1  -5  75 W7        30.40F WCI -12
CAMP DOUGLAS   MOCLDY     1  -2  85 CALM      30.40F
$$

WIZ011>013-019>022-031-037>040-048>050-171400-
NORTHEAST WISCONSIN

CITY           SKY/WX    TMP DP  RH WIND       PRES   REMARKS
ANTIGO         FAIR       1  -3  83 W9        30.27F WCI -14
SHAWANO        FAIR       7   1  76 SW10G16   30.34F WCI  -7
OCONTO         FAIR       5   0  79 SW9       30.34F WCI  -9
STURGEON BAY   FAIR       5   1  83 SW15      30.31F WCI -13
GREEN BAY      MOCLDY     5  -1  76 SW10      30.37F WCI -10
MANITOWOC      CLOUDY     7   2  80 SW14G20   30.38F WCI -10
APPLETON       MOCLDY     3  -4  72 W14       30.36F WCI -15
CLINTONVILLE   FAIR       3  -2  78 W8        30.37F WCI -10
OSHKOSH        CLOUDY     5   0  79 SW5       30.40F WCI  -4
$$

WIZ032>034-041-042-053>061-171400-
SOUTHWEST WISCONSIN

CITY           SKY/WX    TMP DP  RH WIND       PRES   REMARKS
LA CROSSE      FAIR       0  -5  79 S8        30.47F WCI -14
SPARTA         FAIR      -2  -5  88 CALM      30.45F
VIROQUA        FAIR      -3  -5  90 SW7       30.41F WCI -16
BOSCOBEL       FAIR      -5 -10  79 SW5       30.52F WCI -16
PRAIRIE DU CHI FAIR      -4  -9  78 CALM      30.53F
PLATTEVILLE    FAIR      -4  -7  88 SW6       30.49F WCI -16
$$

WIZ056-057-062-063-064-067-068-171400-
SOUTH CENTRAL WISCONSIN

CITY           SKY/WX    TMP DP  RH WIND       PRES   REMARKS
REEDSBURG      FAIR       0  -4  84 SW8       30.44F WCI -14
BARABOO/DELLS  FAIR      -1  -5  85 SW6       30.43F WCI -13
LONE ROCK      NOT AVBL
MINERAL POINT  FAIR       0  -4  85 W3        30.46S
MADISON        FAIR       1  -3  83 SW3       30.45F
MIDDLETON      FAIR       2  -2  83 W9        30.46F WCI -13
WATERTOWN      FAIR       0  -2  92 CALM      30.46S
MONROE         FAIR       0  -4  85 SW13      30.46F WCI -18
JANESVILLE     CLEAR     -2  -6  84 SW6       30.50F WCI -14
$$

WIZ051-052-058>065-066-070>072-171400-
SOUTHEAST WISCONSIN

CITY           SKY/WX    TMP DP  RH WIND       PRES   REMARKS
MILWAUKEE      FAIR       6   2  83 W8        30.46F WCI  -7
WAUKESHA       CLEAR      1   0  92 SW7       30.46F WCI -11
MILWAUKEE/TIMM FAIR       5   1  85 SW8       30.46F WCI  -8
RACINE         FAIR       5   1  83 W8        30.48F WCI  -8
BURLINGTON     FAIR      -1  -6  81 SW5       30.48F WCI -12
KENOSHA        FAIR       2  -2  83 W10       30.48F WCI -14
FOND DU LAC    CLOUDY     4  -2  76 SW8       30.42F WCI  -9
SHEBOYGAN      CLOUDY     8   3  80 W10       30.40F WCI  -6
WEST BEND      FAIR       5   1  85 W7        30.41F WCI  -7
JUNEAU         FAIR      -3  -6  86 SW6       30.45S WCI -15
$$

LSZ147-162-171400-
LAKE SUPERIOR

STATION/POSITION TIME  TEMP    WIND        PRES    WAVE
                       AIR SEA DIR/SP/G            HT/PER
                 (UTC) (F)     (DEG/KT/KT) (MB)    (FT/S)
DEVILS ISLAND    1200   11     230/ 27/ 32 1022.8F
SAXON HARBOR     1230   10     200/ 10/ 17 1022.7S
$$

LMZ867-665-643>646-171400-
LAKE MICHIGAN

STATION/POSITION TIME  TEMP    WIND        PRES    WAVE
                       AIR SEA DIR/SP/G            HT/PER
                 (UTC) (F)     (DEG/KT/KT) (MB)    (FT/S)
NORTHPORT PIER   1240    7     240/ 11/ 37 1025.1F
KEWAUNEE LAKESHO 1230    8     260/ 10/ 15 1027.0F
SHEBOYGAN LAKESH 1200    8     260/ 12/ 14 1031.5F
PORT WASHINGTON  1240    7     260/  5/ 12 1031.5F
MILWAUKEE LAKESH 1230    9     270/ 10/ 12   N/A
KENOSHA   LAKESH 1200    6     260/ 10/ 12 1032.5
$$

TC  - TEMPERATURE IN CELSIUS
VSB - VISIBILITY IN STATUTE MILES
WCI - WIND CHILL INDEX
HX  - HEAT INDEX





USA.gov is the U.S. government's official web portal to all federal, state and local government web resources and services.